When you browse on this site, cookies collect data to enhance your experience and personalize the content and advertising you see.
Visit our Privacy Policy to learn more. By continuing to use the site, you agree to this use of cookies and data.

Stündliche Wetter Cairns

Heute, 9 Juli, Donnerstag

Zeit Temperatur Niederschläge Wind Luftdruck Luftfeuchtigkeit
00:00 +20°C° 0.1 mm 5 m/S 762 mmHg 96%
01:00 +20°C° 0.1 mm 5 m/S 762 mmHg 96%
02:00 +20°C° 0 mm 5 m/S 761 mmHg 96%
03:00 +20°C° 0 mm 5 m/S 761 mmHg 95%
04:00 +20°C° 0 mm 5 m/S 761 mmHg 95%
05:00 +20°C° 0 mm 5 m/S 761 mmHg 95%
06:00 +19°C° 0 mm 4 m/S 762 mmHg 94%
07:00 +19°C° 0 mm 4 m/S 762 mmHg 94%
08:00 +21°C° 0 mm 5 m/S 762 mmHg 86%
09:00 +23°C° 0 mm 5 m/S 762 mmHg 77%
10:00 +26°C° 0 mm 5 m/S 762 mmHg 68%
11:00 +27°C° 0 mm 5 m/S 762 mmHg 65%
12:00 +28°C° 0 mm 5 m/S 761 mmHg 61%
13:00 +29°C° 0 mm 6 m/S 761 mmHg 57%
14:00 +28°C° 0 mm 6 m/S 761 mmHg 60%
15:00 +28°C° 0 mm 6 m/S 760 mmHg 62%
16:00 +27°C° 0 mm 6 m/S 760 mmHg 65%
17:00 +26°C° 0.1 mm 5 m/S 760 mmHg 75%
18:00 +23°C° 0.1 mm 5 m/S 761 mmHg 85%
19:00 +21°C° 0.1 mm 4 m/S 762 mmHg 95%
20:00 +21°C° 0.1 mm 4 m/S 762 mmHg 96%
21:00 +21°C° 0.1 mm 5 m/S 762 mmHg 97%
22:00 +21°C° 0.1 mm 5 m/S 762 mmHg 97%
23:00 +21°C° 0.2 mm 5 m/S 762 mmHg 97%

Morgen, 10 Juli, Freitag

Zeit Temperatur Niederschläge Wind Luftdruck Luftfeuchtigkeit
00:00 +21°C° 0.2 mm 5 m/S 762 mmHg 97%
01:00 +21°C° 0.2 mm 6 m/S 762 mmHg 97%
02:00 +21°C° 0.3 mm 6 m/S 762 mmHg 97%
03:00 +21°C° 0.3 mm 6 m/S 761 mmHg 97%
04:00 +21°C° 0.3 mm 6 m/S 761 mmHg 97%
05:00 +21°C° 0.1 mm 6 m/S 761 mmHg 97%
06:00 +21°C° 0.1 mm 5 m/S 761 mmHg 97%
07:00 +21°C° 0.1 mm 5 m/S 762 mmHg 97%
08:00 +22°C° 0.1 mm 5 m/S 762 mmHg 91%
09:00 +23°C° 0.1 mm 5 m/S 763 mmHg 84%
10:00 +24°C° 0.1 mm 6 m/S 763 mmHg 78%
11:00 +26°C° 0.1 mm 6 m/S 762 mmHg 73%
12:00 +27°C° 0.1 mm 6 m/S 762 mmHg 68%
13:00 +28°C° 0.1 mm 6 m/S 761 mmHg 63%
14:00 +27°C° 0 mm 6 m/S 761 mmHg 65%
15:00 +27°C° 0 mm 5 m/S 761 mmHg 66%
16:00 +26°C° 0 mm 5 m/S 761 mmHg 67%
17:00 +25°C° 0 mm 5 m/S 761 mmHg 74%
18:00 +22°C° 0 mm 5 m/S 761 mmHg 81%
19:00 +21°C° 0 mm 4 m/S 762 mmHg 88%
20:00 +20°C° 0 mm 4 m/S 762 mmHg 90%
21:00 +20°C° 0 mm 4 m/S 763 mmHg 92%
22:00 +19°C° 0 mm 4 m/S 763 mmHg 94%
23:00 +19°C° 0 mm 4 m/S 762 mmHg 94%

übermorgen, 11 Juli, Samstag

Zeit Temperatur Niederschläge Wind Luftdruck Luftfeuchtigkeit
00:00 +19°C° 0 mm 4 m/S 762 mmHg 95%
01:00 +19°C° 0 mm 4 m/S 762 mmHg 95%
02:00 +19°C° 0 mm 4 m/S 761 mmHg 95%
03:00 +19°C° 0 mm 4 m/S 761 mmHg 95%
04:00 +19°C° 0 mm 4 m/S 760 mmHg 96%
05:00 +19°C° 0 mm 4 m/S 761 mmHg 96%
06:00 +19°C° 0 mm 4 m/S 761 mmHg 96%
07:00 +19°C° 0 mm 4 m/S 761 mmHg 96%
08:00 +21°C° 0 mm 4 m/S 761 mmHg 86%
09:00 +25°C° 0 mm 4 m/S 761 mmHg 76%
10:00 +27°C° 0 mm 4 m/S 761 mmHg 66%
11:00 +28°C° 0 mm 4 m/S 761 mmHg 64%
12:00 +29°C° 0 mm 4 m/S 760 mmHg 61%
13:00 +29°C° 0 mm 4 m/S 760 mmHg 58%
14:00 +29°C° 0 mm 4 m/S 759 mmHg 61%
15:00 +28°C° 0 mm 4 m/S 759 mmHg 64%
16:00 +28°C° 0 mm 4 m/S 759 mmHg 67%
17:00 +26°C° 0 mm 4 m/S 759 mmHg 77%
18:00 +24°C° 0 mm 3 m/S 759 mmHg 87%
19:00 +22°C° 0 mm 3 m/S 759 mmHg 97%
20:00 +21°C° 0 mm 3 m/S 760 mmHg 97%
21:00 +21°C° 0 mm 3 m/S 760 mmHg 97%
22:00 +21°C° 0 mm 3 m/S 760 mmHg 97%
23:00 +21°C° 0 mm 2 m/S 760 mmHg 97%

12 Juli, Sonntag

Zeit Temperatur Niederschläge Wind Luftdruck Luftfeuchtigkeit
00:00 +21°C° 0 mm 2 m/S 760 mmHg 97%
01:00 +21°C° 0 mm 2 m/S 760 mmHg 97%
02:00 +21°C° 0.1 mm 2 m/S 759 mmHg 97%
03:00 +23°C° 0.1 mm 2 m/S 759 mmHg 98%
04:00 +23°C° 0.1 mm 2 m/S 759 mmHg 98%
05:00 +23°C° 0.2 mm 2 m/S 759 mmHg 98%
06:00 +22°C° 0.2 mm 3 m/S 760 mmHg 98%
07:00 +22°C° 0.2 mm 3 m/S 760 mmHg 98%
08:00 +24°C° 0.3 mm 3 m/S 760 mmHg 94%
09:00 +25°C° 0.3 mm 3 m/S 760 mmHg 90%
10:00 +26°C° 0.3 mm 3 m/S 760 mmHg 86%
11:00 +27°C° 0.1 mm 3 m/S 760 mmHg 81%
12:00 +28°C° 0.1 mm 3 m/S 759 mmHg 76%
13:00 +28°C° 0.1 mm 3 m/S 759 mmHg 72%
14:00 +28°C° 0 mm 3 m/S 759 mmHg 71%
15:00 +28°C° 0 mm 4 m/S 759 mmHg 70%
16:00 +28°C° 0 mm 4 m/S 759 mmHg 69%
17:00 +26°C° 0 mm 4 m/S 759 mmHg 78%
18:00 +25°C° 0 mm 3 m/S 759 mmHg 87%
19:00 +22°C° 0 mm 3 m/S 760 mmHg 96%
20:00 +22°C° 0 mm 3 m/S 760 mmHg 97%
21:00 +22°C° 0 mm 3 m/S 761 mmHg 97%
22:00 +22°C° 0 mm 3 m/S 761 mmHg 97%
23:00 +21°C° 0 mm 3 m/S 761 mmHg 97%

13 Juli, Montag

Zeit Temperatur Niederschläge Wind Luftdruck Luftfeuchtigkeit
00:00 +21°C° 0 mm 3 m/S 761 mmHg 97%
01:00 +21°C° 0 mm 3 m/S 760 mmHg 97%
02:00 +22°C° 0 mm 3 m/S 760 mmHg 95%
03:00 +22°C° 0 mm 3 m/S 760 mmHg 94%
04:00 +22°C° 0 mm 3 m/S 760 mmHg 92%
05:00 +22°C° 0 mm 4 m/S 760 mmHg 92%
06:00 +22°C° 0 mm 4 m/S 761 mmHg 92%
07:00 +22°C° 0 mm 4 m/S 761 mmHg 93%
08:00 +23°C° 0 mm 4 m/S 761 mmHg 90%
09:00 +25°C° 0 mm 5 m/S 762 mmHg 87%
10:00 +25°C° 0 mm 5 m/S 762 mmHg 84%
11:00 +26°C° 0 mm 5 m/S 762 mmHg 78%
12:00 +28°C° 0 mm 5 m/S 761 mmHg 72%
13:00 +29°C° 0 mm 5 m/S 761 mmHg 66%
14:00 +29°C° 0 mm 5 m/S 760 mmHg 66%
15:00 +28°C° 0 mm 5 m/S 760 mmHg 66%
16:00 +28°C° 0 mm 5 m/S 760 mmHg 67%
17:00 +26°C° 0 mm 5 m/S 760 mmHg 74%
18:00 +25°C° 0 mm 5 m/S 761 mmHg 81%
19:00 +22°C° 0 mm 4 m/S 761 mmHg 88%
20:00 +21°C° 0 mm 5 m/S 762 mmHg 87%
21:00 +21°C° 0 mm 5 m/S 762 mmHg 87%
22:00 +20°C° 0 mm 5 m/S 762 mmHg 87%
23:00 +20°C° 0 mm 5 m/S 762 mmHg 87%

14 Juli, Dienstag

Zeit Temperatur Niederschläge Wind Luftdruck Luftfeuchtigkeit
00:00 +20°C° 0 mm 5 m/S 762 mmHg 86%
01:00 +20°C° 0 mm 6 m/S 762 mmHg 86%
02:00 +20°C° 0 mm 6 m/S 761 mmHg 86%
03:00 +20°C° 0 mm 6 m/S 761 mmHg 87%
04:00 +20°C° 0 mm 6 m/S 761 mmHg 87%
05:00 +19°C° 0 mm 6 m/S 761 mmHg 85%
06:00 +19°C° 0 mm 6 m/S 762 mmHg 82%
07:00 +19°C° 0 mm 6 m/S 762 mmHg 80%
08:00 +21°C° 0 mm 6 m/S 763 mmHg 70%
09:00 +22°C° 0 mm 6 m/S 763 mmHg 59%
10:00 +24°C° 0 mm 6 m/S 763 mmHg 49%
11:00 +26°C° 0 mm 6 m/S 762 mmHg 49%
12:00 +27°C° 0 mm 6 m/S 762 mmHg 50%
13:00 +27°C° 0 mm 6 m/S 761 mmHg 50%
14:00 +27°C° 0 mm 6 m/S 761 mmHg 52%
15:00 +26°C° 0 mm 6 m/S 760 mmHg 54%
16:00 +24°C° 0 mm 6 m/S 760 mmHg 56%
17:00 +23°C° 0 mm 5 m/S 760 mmHg 60%
18:00 +21°C° 0 mm 5 m/S 761 mmHg 64%
19:00 +20°C° 0 mm 5 m/S 761 mmHg 67%
20:00 +20°C° 0 mm 5 m/S 762 mmHg 68%
21:00 +19°C° 0 mm 4 m/S 762 mmHg 69%
22:00 +19°C° 0 mm 4 m/S 762 mmHg 70%
23:00 +18°C° 0 mm 4 m/S 762 mmHg 71%
Mehr zeigen